Rechercher aéroport 
image banner adimage banner ad
image banner ad

DAOB - Tiaret / Abdelhafid Boussouf Bou Chekif

Situé à Tiaret, Algeria

ICAO - DAOB, IATA - TID

Données fournies par Airmate  

Information générale

Coordonnées: N35°20'29" E1°28'1"
Élévation : 3244 feet MSL.
 
Voir autres Aéroports à Tiaret Province

Données opérationnelles

Accessible au public
Heure actuelle UTC:
Heure actuelle locale:
Météo
METAR: DAOB 301900Z 10003KT CAVOK 15/M06 Q1028
TAF: TAF DAOB 301700Z 3018/3118 VRB02KT CAVOK BECMG 3110/3113 32010KT
Voir NOTAMs / SUP AIP / TFR affectant cet aéroport [VIEW]
Fréquences de communication: [VIEW]

Pistes:

Identifiant RWYQFULongueur (ft)Largeur (ft)SurfaceLDA (ft)
0881°9843148ASP
26261°9843148

Coordonnées de l'aéroport

Adresse: Tiaret Algeria

Vue satellite de DAOB